Year,Month,Day,Hour,Minute,Value (Times are PST for temperature in C)
2009,01,27,10,25,-0.40
2009,01,27,10,26,-0.40
2009,01,27,10,27,-0.40
2009,01,27,10,28,-0.40
2009,01,27,10,29,-0.40
2009,01,27,10,30,-0.40
2009,01,27,10,31,-0.40
2009,01,27,10,32,-0.40
2009,01,27,10,33,-0.40
2009,01,27,10,34,-0.40
2009,01,27,10,35,-0.30
2009,01,27,10,36,-0.30
2009,01,27,10,37,-0.30
2009,01,27,10,38,-0.20
2009,01,27,10,39,-0.20
2009,01,27,10,40,-0.20
2009,01,27,10,41,-0.10
2009,01,27,10,42,-0.10
2009,01,27,10,43,-0.10
2009,01,27,10,44,-0.10
2009,01,27,10,45,-0.10
2009,01,27,10,46,-0.10
2009,01,27,10,47,-0.10
2009,01,27,10,48,-0.10
2009,01,27,10,49,0.00
2009,01,27,10,50,0.00
2009,01,27,10,51,0.00
2009,01,27,10,52,0.10
2009,01,27,10,53,0.10
2009,01,27,10,54,0.10
2009,01,27,10,55,0.10
2009,01,27,10,56,0.10
2009,01,27,10,57,0.10
2009,01,27,10,58,0.10
2009,01,27,10,59,0.10
2009,01,27,11,00,0.10
2009,01,27,11,01,0.10
2009,01,27,11,02,0.00
2009,01,27,11,03,0.00
2009,01,27,11,04,0.10
2009,01,27,11,05,0.10
2009,01,27,11,06,0.10
2009,01,27,11,07,0.10
2009,01,27,11,08,0.10
2009,01,27,11,09,0.10
2009,01,27,11,10,0.10
2009,01,27,11,11,0.20
2009,01,27,11,12,0.20
2009,01,27,11,13,0.20
2009,01,27,11,14,0.20
2009,01,27,11,15,0.20
2009,01,27,11,16,0.20
2009,01,27,11,17,0.20
2009,01,27,11,18,0.20
2009,01,27,11,19,0.30
2009,01,27,11,20,0.30
2009,01,27,11,21,0.30
2009,01,27,11,22,0.40
2009,01,27,11,23,0.40
2009,01,27,11,24,0.40
2009,01,27,11,25,0.40
2009,01,27,11,26,0.40
2009,01,27,11,27,0.40
2009,01,27,11,28,0.40
2009,01,27,11,29,0.40
2009,01,27,11,30,0.40
2009,01,27,11,31,0.40
2009,01,27,11,32,0.40
2009,01,27,11,33,0.40
2009,01,27,11,34,0.40
2009,01,27,11,35,0.40
2009,01,27,11,36,0.30
2009,01,27,11,37,0.30
2009,01,27,11,38,0.30
2009,01,27,11,39,0.30
2009,01,27,11,40,0.30
2009,01,27,11,41,0.30
2009,01,27,11,42,0.30
2009,01,27,11,43,0.30
2009,01,27,11,44,0.30
2009,01,27,11,45,0.30
2009,01,27,11,46,0.30
2009,01,27,11,47,0.30
2009,01,27,11,48,0.30
2009,01,27,11,49,0.30
2009,01,27,11,50,0.30
2009,01,27,11,51,0.30
2009,01,27,11,52,0.30
2009,01,27,11,53,0.30
2009,01,27,11,54,0.30
2009,01,27,11,55,0.30
2009,01,27,11,56,0.30
2009,01,27,11,57,0.30
2009,01,27,11,58,0.30
2009,01,27,11,59,0.30
2009,01,27,12,00,0.30
2009,01,27,12,01,0.30
2009,01,27,12,02,0.30
2009,01,27,12,03,0.30
2009,01,27,12,04,0.30
2009,01,27,12,05,0.30
2009,01,27,12,06,0.30
2009,01,27,12,07,0.30
2009,01,27,12,08,0.40
2009,01,27,12,09,0.40
2009,01,27,12,10,0.40
2009,01,27,12,11,0.40
2009,01,27,12,12,0.40
2009,01,27,12,13,0.40
2009,01,27,12,14,0.50
2009,01,27,12,15,0.50
2009,01,27,12,16,0.50
2009,01,27,12,17,0.60
2009,01,27,12,18,0.60
2009,01,27,12,19,0.60
2009,01,27,12,20,0.70
2009,01,27,12,21,0.70
2009,01,27,12,22,0.80
2009,01,27,12,23,0.80
2009,01,27,12,24,0.80
2009,01,27,12,25,0.80
2009,01,27,12,26,0.90
2009,01,27,12,27,0.80
2009,01,27,12,28,0.80
2009,01,27,12,29,0.80
2009,01,27,12,30,0.90
2009,01,27,12,31,0.90
2009,01,27,12,32,0.90
2009,01,27,12,33,0.90
2009,01,27,12,34,0.90
2009,01,27,12,35,0.90
2009,01,27,12,36,0.80
2009,01,27,12,37,0.80
2009,01,27,12,38,0.80
2009,01,27,12,39,0.80
2009,01,27,12,40,0.80
2009,01,27,12,41,0.80
2009,01,27,12,42,0.80
2009,01,27,12,43,0.80
2009,01,27,12,44,0.80
2009,01,27,12,45,0.80
2009,01,27,12,46,0.80
2009,01,27,12,47,0.80
2009,01,27,12,48,0.80
2009,01,27,12,49,0.80
2009,01,27,12,50,0.80
2009,01,27,12,51,0.80
2009,01,27,12,52,0.80
2009,01,27,12,53,0.80
2009,01,27,12,54,0.80
2009,01,27,12,55,0.80
2009,01,27,12,56,0.80
2009,01,27,12,57,0.80
2009,01,27,12,58,0.80
2009,01,27,12,59,0.80
2009,01,27,13,00,0.80
2009,01,27,13,01,0.80
2009,01,27,13,02,0.80
2009,01,27,13,03,0.80
2009,01,27,13,04,0.80
2009,01,27,13,05,0.90
2009,01,27,13,06,0.90
2009,01,27,13,07,0.90
2009,01,27,13,08,0.90
2009,01,27,13,09,0.90
2009,01,27,13,10,0.90
2009,01,27,13,11,0.90
2009,01,27,13,12,0.90
2009,01,27,13,13,0.80
2009,01,27,13,14,0.80
2009,01,27,13,15,0.80
2009,01,27,13,16,0.80
2009,01,27,13,17,0.80
2009,01,27,13,18,0.80
2009,01,27,13,19,0.80
2009,01,27,13,20,0.80
2009,01,27,13,21,0.90
2009,01,27,13,22,0.90
2009,01,27,13,23,0.90
2009,01,27,13,24,0.90
2009,01,27,13,25,0.90
2009,01,27,13,26,0.90
2009,01,27,13,27,0.90
2009,01,27,13,28,0.90
2009,01,27,13,29,0.90
2009,01,27,13,30,0.90
2009,01,27,13,31,0.90
2009,01,27,13,32,0.90
2009,01,27,13,33,0.90
2009,01,27,13,34,0.90
2009,01,27,13,35,0.80
2009,01,27,13,36,0.90
2009,01,27,13,37,0.90
2009,01,27,13,38,0.90
2009,01,27,13,39,0.90
2009,01,27,13,40,0.90
2009,01,27,13,41,0.90
2009,01,27,13,42,0.90
2009,01,27,13,43,0.90
2009,01,27,13,44,0.90
2009,01,27,13,45,0.90
2009,01,27,13,46,0.90
2009,01,27,13,47,0.90
2009,01,27,13,48,0.90
2009,01,27,13,49,0.90
2009,01,27,13,50,0.90
2009,01,27,13,51,0.90
2009,01,27,13,52,0.90
2009,01,27,13,53,0.90
2009,01,27,13,54,0.90
2009,01,27,13,55,0.90
2009,01,27,13,56,0.90
2009,01,27,13,57,0.80
2009,01,27,13,58,0.80
2009,01,27,13,59,0.80
2009,01,27,14,00,0.80
2009,01,27,14,01,0.90
2009,01,27,14,02,0.90
2009,01,27,14,03,0.90
2009,01,27,14,04,0.90
2009,01,27,14,05,0.90
2009,01,27,14,06,0.90
2009,01,27,14,07,0.90
2009,01,27,14,08,0.90
2009,01,27,14,09,1.00
2009,01,27,14,10,1.00
2009,01,27,14,11,1.00
2009,01,27,14,12,1.00
2009,01,27,14,13,1.00
2009,01,27,14,14,1.00
2009,01,27,14,15,0.90
2009,01,27,14,16,0.90
2009,01,27,14,17,0.90
2009,01,27,14,18,0.90
2009,01,27,14,19,0.80
2009,01,27,14,20,0.80
2009,01,27,14,21,0.80
2009,01,27,14,22,0.80
2009,01,27,14,23,0.90
2009,01,27,14,24,0.90
2009,01,27,14,25,0.90
2009,01,27,14,26,0.90
2009,01,27,14,27,1.00
2009,01,27,14,28,1.00
2009,01,27,14,29,1.00
2009,01,27,14,30,1.10
2009,01,27,14,31,1.10
2009,01,27,14,32,1.10
2009,01,27,14,33,1.10
2009,01,27,14,34,1.20
2009,01,27,14,35,1.20
2009,01,27,14,36,1.30
2009,01,27,14,37,1.30
2009,01,27,14,38,1.30
2009,01,27,14,39,1.30
2009,01,27,14,40,1.30
2009,01,27,14,41,1.30
2009,01,27,14,42,1.30
2009,01,27,14,43,1.30
2009,01,27,14,44,1.30
2009,01,27,14,45,1.30
2009,01,27,14,46,1.30
2009,01,27,14,47,1.30
2009,01,27,14,48,1.30
2009,01,27,14,49,1.30
2009,01,27,14,50,1.30
2009,01,27,14,51,1.30
2009,01,27,14,52,1.40
2009,01,27,14,53,1.40
2009,01,27,14,54,1.40
2009,01,27,14,55,1.40
2009,01,27,14,56,1.40
2009,01,27,14,57,1.30
2009,01,27,14,58,1.30
2009,01,27,14,59,1.30
2009,01,27,15,00,1.40
2009,01,27,15,01,1.40
2009,01,27,15,02,1.50
2009,01,27,15,03,1.50
2009,01,27,15,04,1.50
2009,01,27,15,05,1.60
2009,01,27,15,06,1.60
2009,01,27,15,07,1.60
2009,01,27,15,08,1.60
2009,01,27,15,09,1.60
2009,01,27,15,10,1.60
2009,01,27,15,11,1.60
2009,01,27,15,12,1.60
2009,01,27,15,13,1.60
2009,01,27,15,14,1.60
2009,01,27,15,15,1.70
2009,01,27,15,16,1.60
2009,01,27,15,17,1.60
2009,01,27,15,18,1.70
2009,01,27,15,19,1.70
2009,01,27,15,20,1.70
2009,01,27,15,21,1.70
2009,01,27,15,22,1.70
2009,01,27,15,23,1.70
2009,01,27,15,24,1.70
2009,01,27,15,25,1.70
2009,01,27,15,26,1.70
2009,01,27,15,27,1.70
2009,01,27,15,28,1.70
2009,01,27,15,29,1.70
2009,01,27,15,30,1.70
2009,01,27,15,31,1.70
2009,01,27,15,32,1.70
2009,01,27,15,33,1.70
2009,01,27,15,34,1.70
2009,01,27,15,35,1.70
2009,01,27,15,36,1.70
2009,01,27,15,37,1.70
2009,01,27,15,38,1.70
2009,01,27,15,39,1.70
2009,01,27,15,40,1.70
2009,01,27,15,41,1.70
2009,01,27,15,42,1.70
2009,01,27,15,43,1.70
2009,01,27,15,44,1.70
2009,01,27,15,45,1.70
2009,01,27,15,46,1.70
2009,01,27,15,47,1.70
2009,01,27,15,48,1.70
2009,01,27,15,49,1.70
2009,01,27,15,50,1.70
2009,01,27,15,51,1.70
2009,01,27,15,52,1.70
2009,01,27,15,53,1.70
2009,01,27,15,54,1.70
2009,01,27,15,55,1.70
2009,01,27,15,56,1.70
2009,01,27,15,57,1.70
2009,01,27,15,58,1.70
2009,01,27,15,59,1.70
2009,01,27,16,00,1.80
2009,01,27,16,01,1.80
2009,01,27,16,02,1.80
2009,01,27,16,03,1.80
2009,01,27,16,04,1.80
2009,01,27,16,05,1.80
2009,01,27,16,06,1.80
2009,01,27,16,07,1.80
2009,01,27,16,08,1.80
2009,01,27,16,09,1.80
2009,01,27,16,10,1.80
2009,01,27,16,11,1.80
2009,01,27,16,12,1.90
2009,01,27,16,13,1.90
2009,01,27,16,14,1.90
2009,01,27,16,15,1.90
2009,01,27,16,16,1.90
2009,01,27,16,17,1.90
2009,01,27,16,18,1.90
2009,01,27,16,19,1.90
2009,01,27,16,20,1.90
2009,01,27,16,21,1.90
2009,01,27,16,22,1.90
2009,01,27,16,23,1.90
2009,01,27,16,24,1.90
2009,01,27,16,25,1.90
2009,01,27,16,26,1.90
2009,01,27,16,27,1.90
2009,01,27,16,28,1.90
2009,01,27,16,29,1.90
